Time,TemperatureF,DewpointF,PressureIn,WindDirection,WindDirectionDegrees,WindSpeedMPH,WindSpeedGustMPH,Humidity,HourlyPrecipIn,Conditions,Clouds,dailyrainin,SoftwareType,DateUTC
2013-10-19 00:00:00,45.7,42.9,30.44,NNW,338,5.0,11.0,90,0.12,,---,0.02,VWS V14.01,2013-10-19 05:00:00,
2013-10-19 00:10:00,45.4,42.6,30.44,NNW,338,5.0,12.0,90,0.11,,---,0.03,VWS V14.01,2013-10-19 05:10:00,
2013-10-19 00:20:00,44.9,42.2,30.44,NNW,338,6.0,13.0,90,0.10,,---,0.04,VWS V14.01,2013-10-19 05:20:00,
2013-10-19 00:30:00,44.6,41.8,30.44,NNW,338,7.0,12.0,90,0.10,,---,0.05,VWS V14.01,2013-10-19 05:30:00,
2013-10-19 00:40:00,44.3,41.6,30.44,NNW,338,7.0,13.0,90,0.08,,---,0.05,VWS V14.01,2013-10-19 05:40:00,
2013-10-19 00:50:00,44.2,41.5,30.45,NNW,338,6.0,14.0,90,0.06,,---,0.05,VWS V14.01,2013-10-19 05:50:00,
2013-10-19 01:00:00,44.2,41.7,30.45,NNW,338,6.0,14.0,91,0.06,,---,0.06,VWS V14.01,2013-10-19 06:00:00,
2013-10-19 01:10:00,44.1,41.7,30.45,NNW,338,6.0,12.0,91,0.04,,---,0.06,VWS V14.01,2013-10-19 06:10:00,
2013-10-19 01:20:00,43.9,41.5,30.45,NNW,338,6.0,13.0,91,0.03,,---,0.06,VWS V14.01,2013-10-19 06:20:00,
2013-10-19 01:30:00,43.6,41.2,30.46,NNW,338,8.0,15.0,91,0.02,,---,0.06,VWS V14.01,2013-10-19 06:30:00,
2013-10-19 01:40:00,43.2,40.8,30.46,NW,315,7.0,14.0,91,0.01,,---,0.06,VWS V14.01,2013-10-19 06:40:00,
2013-10-19 01:50:00,42.9,40.5,30.47,NW,315,5.0,10.0,91,0.01,,---,0.06,VWS V14.01,2013-10-19 06:50:00,
2013-10-19 02:00:00,42.5,40.1,30.47,NW,315,6.0,13.0,91,0.01,,---,0.06,VWS V14.01,2013-10-19 07:00:00,
2013-10-19 02:10:00,42.2,39.8,30.47,NNW,338,4.0,9.0,91,0.00,,---,0.06,VWS V14.01,2013-10-19 07:10:00,
2013-10-19 02:20:00,42.1,39.7,30.46,NNW,338,4.0,9.0,91,0.00,,---,0.06,VWS V14.01,2013-10-19 07:20:00,
2013-10-19 02:30:00,42.1,39.7,30.46,North,0,3.0,9.0,91,0.00,,---,0.06,VWS V14.01,2013-10-19 07:30:00,
2013-10-19 02:40:00,41.9,39.5,30.46,North,0,4.0,10.0,91,0.00,,---,0.06,VWS V14.01,2013-10-19 07:40:00,
2013-10-19 02:50:00,41.8,39.4,30.47,North,0,5.0,12.0,91,0.00,,---,0.06,VWS V14.01,2013-10-19 07:50:00,
2013-10-19 03:00:00,41.6,39.2,30.47,NNW,338,4.0,7.0,91,0.00,,---,0.06,VWS V14.01,2013-10-19 08:00:00,
2013-10-19 03:10:00,41.6,39.2,30.47,North,0,4.0,9.0,91,0.00,,---,0.06,VWS V14.01,2013-10-19 08:10:00,
2013-10-19 03:20:00,41.6,39.2,30.47,NNW,338,2.0,6.0,91,0.00,,---,0.06,VWS V14.01,2013-10-19 08:20:00,
2013-10-19 03:30:00,41.6,39.2,30.47,NW,315,5.0,12.0,91,0.00,,---,0.06,VWS V14.01,2013-10-19 08:30:00,
2013-10-19 03:40:00,41.3,38.9,30.47,NW,315,5.0,9.0,91,0.00,,---,0.06,VWS V14.01,2013-10-19 08:40:00,
2013-10-19 03:50:00,41.1,38.7,30.47,NNW,338,4.0,11.0,91,0.00,,---,0.06,VWS V14.01,2013-10-19 08:50:00,
2013-10-19 04:00:00,41.1,38.7,30.48,NW,315,3.0,7.0,91,0.00,,---,0.06,VWS V14.01,2013-10-19 09:00:00,
2013-10-19 04:10:00,40.9,38.5,30.48,NW,315,5.0,12.0,91,0.00,,---,0.06,VWS V14.01,2013-10-19 09:10:00,
2013-10-19 04:20:00,40.8,38.4,30.48,NNW,338,4.0,10.0,91,0.00,,---,0.06,VWS V14.01,2013-10-19 09:20:00,
2013-10-19 04:30:00,40.6,38.2,30.48,NNW,338,3.0,7.0,91,0.00,,---,0.06,VWS V14.01,2013-10-19 09:30:00,
2013-10-19 04:40:00,40.5,38.1,30.48,NW,315,3.0,7.0,91,0.00,,---,0.06,VWS V14.01,2013-10-19 09:40:00,
2013-10-19 04:50:00,40.6,38.2,30.48,NW,315,4.0,11.0,91,0.00,,---,0.06,VWS V14.01,2013-10-19 09:50:00,
2013-10-19 05:00:00,40.3,37.9,30.48,NW,315,6.0,11.0,91,0.00,,---,0.06,VWS V14.01,2013-10-19 10:00:00,
2013-10-19 05:10:00,40.1,37.7,30.48,NNW,338,4.0,11.0,91,0.00,,---,0.06,VWS V14.01,2013-10-19 10:10:00,
2013-10-19 05:20:00,39.8,37.4,30.49,NNW,338,5.0,10.0,91,0.00,,---,0.06,VWS V14.01,2013-10-19 10:20:00,
2013-10-19 05:30:00,39.6,37.2,30.49,North,0,2.0,7.0,91,0.00,,---,0.06,VWS V14.01,2013-10-19 10:30:00,
2013-10-19 05:40:00,39.5,37.1,30.49,North,0,3.0,10.0,91,0.00,,---,0.06,VWS V14.01,2013-10-19 10:40:00,
2013-10-19 05:50:00,39.3,36.9,30.49,NNW,338,3.0,7.0,91,0.00,,---,0.06,VWS V14.01,2013-10-19 10:50:00,
2013-10-19 06:00:00,39.3,36.9,30.49,NNW,338,2.0,5.0,91,0.00,,---,0.06,VWS V14.01,2013-10-19 11:00:00,
2013-10-19 06:10:00,39.1,36.4,30.49,North,0,4.0,10.0,90,0.00,,---,0.06,VWS V14.01,2013-10-19 11:10:00,
2013-10-19 06:20:00,38.9,36.2,30.51,North,0,3.0,6.0,90,0.00,,---,0.06,VWS V14.01,2013-10-19 11:20:00,
2013-10-19 06:30:00,38.8,36.1,30.51,North,0,2.0,5.0,90,0.00,,---,0.06,VWS V14.01,2013-10-19 11:30:00,
2013-10-19 06:40:00,38.5,35.8,30.51,NE,45,2.0,5.0,90,0.00,,---,0.06,VWS V14.01,2013-10-19 11:40:00,
2013-10-19 06:50:00,38.2,35.5,30.51,NNE,22,1.0,4.0,90,0.00,,---,0.06,VWS V14.01,2013-10-19 11:50:00,
2013-10-19 07:00:00,38.0,35.3,30.51,NNE,22,2.0,3.0,90,0.00,,---,0.06,VWS V14.01,2013-10-19 12:00:00,
2013-10-19 07:10:00,37.8,35.1,30.51,NNE,22,0.0,3.0,90,0.00,,---,0.06,VWS V14.01,2013-10-19 12:10:00,
2013-10-19 07:20:00,37.6,34.9,30.52,NNE,22,0.0,2.0,90,0.00,,---,0.06,VWS V14.01,2013-10-19 12:20:00,
2013-10-19 07:30:00,37.3,34.6,30.53,NNE,22,1.0,2.0,90,0.00,,---,0.06,VWS V14.01,2013-10-19 12:30:00,
2013-10-19 07:40:00,37.2,34.5,30.53,NNE,22,1.0,2.0,90,0.00,,---,0.06,VWS V14.01,2013-10-19 12:40:00,
2013-10-19 07:50:00,36.9,34.0,30.53,NNE,22,1.0,4.0,89,0.00,,---,0.06,VWS V14.01,2013-10-19 12:50:00,
2013-10-19 08:00:00,36.8,34.2,30.54,NNE,22,1.0,3.0,90,0.00,,---,0.06,VWS V14.01,2013-10-19 13:00:00,
2013-10-19 08:10:00,36.8,34.2,30.54,NNE,22,1.0,4.0,90,0.00,,---,0.06,VWS V14.01,2013-10-19 13:10:00,
2013-10-19 08:20:00,37.0,34.3,30.54,NNW,338,2.0,6.0,90,0.00,,---,0.06,VWS V14.01,2013-10-19 13:20:00,
2013-10-19 08:30:00,37.3,34.6,30.54,NW,315,2.0,5.0,90,0.00,,---,0.06,VWS V14.01,2013-10-19 13:30:00,
2013-10-19 08:40:00,37.6,34.9,30.54,NW,315,2.0,6.0,90,0.00,,---,0.06,VWS V14.01,2013-10-19 13:40:00,
2013-10-19 08:50:00,37.8,35.1,30.54,North,0,2.0,5.0,90,0.00,,---,0.06,VWS V14.01,2013-10-19 13:50:00,
2013-10-19 09:00:00,37.9,35.2,30.54,NNW,338,2.0,6.0,90,0.00,,---,0.06,VWS V14.01,2013-10-19 14:00:00,
2013-10-19 09:10:00,38.2,35.5,30.54,NNW,338,1.0,4.0,90,0.00,,---,0.06,VWS V14.01,2013-10-19 14:10:00,
2013-10-19 09:20:00,38.6,35.9,30.56,NNW,338,3.0,8.0,90,0.00,,---,0.06,VWS V14.01,2013-10-19 14:20:00,
2013-10-19 09:30:00,38.5,35.8,30.56,WNW,292,3.0,9.0,90,0.00,,---,0.06,VWS V14.01,2013-10-19 14:30:00,
2013-10-19 09:40:00,38.5,35.8,30.56,WSW,248,4.0,7.0,90,0.00,,---,0.06,VWS V14.01,2013-10-19 14:40:00,
2013-10-19 09:50:00,38.5,35.5,30.57,West,270,3.0,7.0,89,0.00,,---,0.06,VWS V14.01,2013-10-19 14:50:00,
2013-10-19 10:00:00,39.3,36.3,30.57,West,270,2.0,9.0,89,0.00,,---,0.06,VWS V14.01,2013-10-19 15:00:00,
2013-10-19 10:10:00,39.9,36.9,30.57,West,270,2.0,7.0,89,0.00,,---,0.06,VWS V14.01,2013-10-19 15:10:00,
2013-10-19 10:20:00,40.1,36.8,30.57,West,270,4.0,9.0,88,0.00,,---,0.06,VWS V14.01,2013-10-19 15:20:00,
2013-10-19 10:30:00,40.8,37.5,30.57,WNW,292,5.0,11.0,88,0.00,,---,0.06,VWS V14.01,2013-10-19 15:30:00,
2013-10-19 10:40:00,41.9,38.0,30.57,WSW,248,4.0,8.0,86,0.00,,---,0.06,VWS V14.01,2013-10-19 15:40:00,
2013-10-19 10:50:00,42.8,38.9,30.57,WNW,292,3.0,9.0,86,0.00,,---,0.06,VWS V14.01,2013-10-19 15:50:00,
2013-10-19 11:00:00,43.3,38.8,30.56,NW,315,4.0,10.0,84,0.00,,---,0.06,VWS V14.01,2013-10-19 16:00:00,
2013-10-19 11:10:00,44.2,39.1,30.56,NNW,338,3.0,12.0,82,0.00,,---,0.06,VWS V14.01,2013-10-19 16:10:00,
2013-10-19 11:20:00,45.5,39.7,30.55,NW,315,3.0,6.0,80,0.00,,---,0.06,VWS V14.01,2013-10-19 16:20:00,
2013-10-19 11:30:00,46.5,39.7,30.55,SW,225,3.0,10.0,77,0.00,,---,0.06,VWS V14.01,2013-10-19 16:30:00,
2013-10-19 11:40:00,47.4,38.8,30.55,West,270,4.0,10.0,72,0.00,,---,0.06,VWS V14.01,2013-10-19 16:40:00,
2013-10-19 11:50:00,48.8,39.1,30.54,SW,225,4.0,11.0,69,0.00,,---,0.06,VWS V14.01,2013-10-19 16:50:00,
2013-10-19 12:00:00,49.6,38.3,30.53,West,270,6.0,11.0,65,0.00,,---,0.06,VWS V14.01,2013-10-19 17:00:00,
2013-10-19 12:10:00,50.4,37.0,30.53,NW,315,5.0,11.0,60,0.00,,---,0.06,VWS V14.01,2013-10-19 17:10:00,
2013-10-19 12:20:00,50.2,37.3,30.53,NW,315,3.0,7.0,61,0.00,,---,0.06,VWS V14.01,2013-10-19 17:20:00,
2013-10-19 12:30:00,50.7,37.3,30.53,West,270,4.0,9.0,60,0.00,,---,0.06,VWS V14.01,2013-10-19 17:30:00,
2013-10-19 12:40:00,51.1,36.8,30.53,WNW,292,6.0,12.0,58,0.00,,---,0.06,VWS V14.01,2013-10-19 17:40:00,
2013-10-19 12:50:00,51.6,37.8,30.52,WNW,292,6.0,13.0,59,0.00,,---,0.06,VWS V14.01,2013-10-19 17:50:00,
2013-10-19 13:00:00,52.8,38.9,30.51,WSW,248,5.0,11.0,59,0.00,,---,0.06,VWS V14.01,2013-10-19 18:00:00,
2013-10-19 13:10:00,52.8,37.5,30.51,WNW,292,6.0,11.0,56,0.00,,---,0.06,VWS V14.01,2013-10-19 18:10:00,
2013-10-19 13:20:00,52.9,38.5,30.51,WNW,292,5.0,12.0,58,0.00,,---,0.06,VWS V14.01,2013-10-19 18:20:00,
2013-10-19 13:30:00,53.2,38.4,30.50,WSW,248,5.0,11.0,57,0.00,,---,0.06,VWS V14.01,2013-10-19 18:30:00,
2013-10-19 13:40:00,53.8,38.9,30.50,WNW,292,5.0,12.0,57,0.00,,---,0.06,VWS V14.01,2013-10-19 18:40:00,
2013-10-19 13:50:00,53.9,38.1,30.49,WNW,292,4.0,12.0,55,0.00,,---,0.06,VWS V14.01,2013-10-19 18:50:00,
2013-10-19 14:00:00,54.4,38.6,30.49,WSW,248,6.0,12.0,55,0.00,,---,0.06,VWS V14.01,2013-10-19 19:00:00,
2013-10-19 14:10:00,54.8,38.0,30.49,SW,225,4.0,10.0,53,0.00,,---,0.06,VWS V14.01,2013-10-19 19:10:00,
2013-10-19 14:20:00,56.0,39.1,30.48,North,0,4.0,10.0,53,0.00,,---,0.06,VWS V14.01,2013-10-19 19:20:00,
2013-10-19 14:30:00,55.1,37.8,30.48,West,270,6.0,13.0,52,0.00,,---,0.06,VWS V14.01,2013-10-19 19:30:00,
2013-10-19 14:40:00,55.7,38.8,30.48,WNW,292,4.0,11.0,53,0.00,,---,0.06,VWS V14.01,2013-10-19 19:40:00,
2013-10-19 14:50:00,56.2,40.3,30.47,NW,315,5.0,12.0,55,0.00,,---,0.06,VWS V14.01,2013-10-19 19:50:00,
2013-10-19 15:00:00,56.5,38.6,30.47,West,270,5.0,11.0,51,0.00,,---,0.06,VWS V14.01,2013-10-19 20:00:00,
2013-10-19 15:10:00,56.5,39.1,30.47,West,270,5.0,11.0,52,0.00,,---,0.06,VWS V14.01,2013-10-19 20:10:00,
2013-10-19 15:20:00,56.6,39.2,30.47,WNW,292,6.0,14.0,52,0.00,,---,0.06,VWS V14.01,2013-10-19 20:20:00,
2013-10-19 15:30:00,57.0,39.6,30.47,WSW,248,5.0,12.0,52,0.00,,---,0.06,VWS V14.01,2013-10-19 20:30:00,
2013-10-19 15:40:00,57.0,38.0,30.47,WNW,292,6.0,14.0,49,0.00,,---,0.06,VWS V14.01,2013-10-19 20:40:00,
2013-10-19 15:50:00,57.2,37.7,30.47,WSW,248,6.0,12.0,48,0.00,,---,0.06,VWS V14.01,2013-10-19 20:50:00,
2013-10-19 16:00:00,57.6,38.1,30.46,SW,225,7.0,13.0,48,0.00,,---,0.06,VWS V14.01,2013-10-19 21:00:00,
2013-10-19 16:10:00,58.0,38.4,30.46,WNW,292,6.0,14.0,48,0.00,,---,0.06,VWS V14.01,2013-10-19 21:10:00,
2013-10-19 16:20:00,57.3,37.3,30.46,SW,225,5.0,11.0,47,0.00,,---,0.06,VWS V14.01,2013-10-19 21:20:00,
2013-10-19 16:30:00,57.6,35.9,30.45,West,270,6.0,11.0,44,0.00,,---,0.06,VWS V14.01,2013-10-19 21:30:00,
2013-10-19 16:40:00,57.3,36.2,30.45,West,270,5.0,11.0,45,0.00,,---,0.06,VWS V14.01,2013-10-19 21:40:00,
2013-10-19 16:50:00,57.6,35.3,30.45,WSW,248,6.0,11.0,43,0.00,,---,0.06,VWS V14.01,2013-10-19 21:50:00,
2013-10-19 17:00:00,57.5,34.6,30.45,WNW,292,4.0,10.0,42,0.00,,---,0.06,VWS V14.01,2013-10-19 22:00:00,
2013-10-19 17:10:00,57.6,35.3,30.45,West,270,4.0,9.0,43,0.00,,---,0.06,VWS V14.01,2013-10-19 22:10:00,
2013-10-19 17:20:00,57.2,34.9,30.45,WSW,248,5.0,11.0,43,0.00,,---,0.06,VWS V14.01,2013-10-19 22:20:00,
2013-10-19 17:30:00,57.2,35.5,30.44,West,270,5.0,9.0,44,0.00,,---,0.06,VWS V14.01,2013-10-19 22:30:00,
2013-10-19 17:40:00,56.7,34.5,30.44,West,270,5.0,9.0,43,0.00,,---,0.06,VWS V14.01,2013-10-19 22:40:00,
2013-10-19 17:50:00,56.6,36.1,30.44,SW,225,4.0,8.0,46,0.00,,---,0.06,VWS V14.01,2013-10-19 22:50:00,
2013-10-19 18:00:00,56.0,36.1,30.44,WSW,248,5.0,9.0,47,0.00,,---,0.06,VWS V14.01,2013-10-19 23:00:00,
2013-10-19 18:10:00,55.6,36.8,30.44,WSW,248,4.0,9.0,49,0.00,,---,0.06,VWS V14.01,2013-10-19 23:10:00,
2013-10-19 18:20:00,55.4,36.6,30.44,SW,225,3.0,7.0,49,0.00,,---,0.06,VWS V14.01,2013-10-19 23:20:00,
2013-10-19 18:30:00,55.0,36.7,30.45,SW,225,2.0,6.0,50,0.00,,---,0.06,VWS V14.01,2013-10-19 23:30:00,
2013-10-19 18:40:00,54.4,37.2,30.45,SW,225,1.0,4.0,52,0.00,,---,0.06,VWS V14.01,2013-10-19 23:40:00,
2013-10-19 18:50:00,54.1,38.3,30.45,SW,225,0.0,1.0,55,0.00,,---,0.06,VWS V14.01,2013-10-19 23:50:00,
2013-10-19 19:00:00,53.5,39.5,30.45,SW,225,0.0,0.0,59,0.00,,---,0.06,VWS V14.01,2013-10-20 00:00:00,
2013-10-19 19:10:00,52.5,39.5,30.45,SW,225,0.0,0.0,61,0.00,,---,0.06,VWS V14.01,2013-10-20 00:10:00,
2013-10-19 19:20:00,51.3,39.5,30.45,SW,225,0.0,0.0,64,0.00,,---,0.06,VWS V14.01,2013-10-20 00:20:00,
2013-10-19 19:30:00,50.4,39.1,30.46,SW,225,0.0,0.0,65,0.00,,---,0.06,VWS V14.01,2013-10-20 00:30:00,
2013-10-19 19:40:00,49.5,39.0,30.46,SW,225,0.0,0.0,67,0.00,,---,0.06,VWS V14.01,2013-10-20 00:40:00,
2013-10-19 19:50:00,48.8,38.3,30.46,SW,225,0.0,0.0,67,0.00,,---,0.06,VWS V14.01,2013-10-20 00:50:00,
2013-10-19 20:00:00,48.0,38.0,30.47,SW,225,0.0,0.0,68,0.00,,---,0.06,VWS V14.01,2013-10-20 01:00:00,
2013-10-19 20:10:00,47.3,37.7,30.47,SW,225,0.0,0.0,69,0.00,,---,0.06,VWS V14.01,2013-10-20 01:10:00,
2013-10-19 20:20:00,46.5,36.9,30.46,SW,225,0.0,1.0,69,0.00,,---,0.06,VWS V14.01,2013-10-20 01:20:00,
2013-10-19 20:30:00,46.0,36.8,30.46,SW,225,1.0,2.0,70,0.00,,---,0.06,VWS V14.01,2013-10-20 01:30:00,
2013-10-19 20:40:00,45.7,37.2,30.46,SW,225,0.0,2.0,72,0.00,,---,0.06,VWS V14.01,2013-10-20 01:40:00,
2013-10-19 20:50:00,45.4,36.9,30.46,SW,225,0.0,0.0,72,0.00,,---,0.06,VWS V14.01,2013-10-20 01:50:00,
2013-10-19 21:00:00,44.9,36.8,30.47,SW,225,0.0,0.0,73,0.00,,---,0.06,VWS V14.01,2013-10-20 02:00:00,
2013-10-19 21:10:00,44.2,36.5,30.47,SW,225,0.0,0.0,74,0.00,,---,0.06,VWS V14.01,2013-10-20 02:10:00,
2013-10-19 21:20:00,43.6,35.9,30.47,SW,225,0.0,0.0,74,0.00,,---,0.06,VWS V14.01,2013-10-20 02:20:00,
2013-10-19 21:30:00,43.1,35.7,30.47,SW,225,0.0,0.0,75,0.00,,---,0.06,VWS V14.01,2013-10-20 02:30:00,
2013-10-19 21:40:00,42.5,35.2,30.47,SW,225,0.0,0.0,75,0.00,,---,0.06,VWS V14.01,2013-10-20 02:40:00,
2013-10-19 21:50:00,42.1,35.1,30.48,SW,225,0.0,0.0,76,0.00,,---,0.06,VWS V14.01,2013-10-20 02:50:00,
2013-10-19 22:00:00,41.5,34.5,30.48,SW,225,0.0,0.0,76,0.00,,---,0.06,VWS V14.01,2013-10-20 03:00:00,
2013-10-19 22:10:00,41.1,34.5,30.48,SW,225,0.0,0.0,77,0.00,,---,0.06,VWS V14.01,2013-10-20 03:10:00,
2013-10-19 22:20:00,40.8,34.2,30.47,SW,225,0.0,0.0,77,0.00,,---,0.06,VWS V14.01,2013-10-20 03:20:00,
2013-10-19 22:30:00,40.5,34.2,30.48,SW,225,0.0,0.0,78,0.00,,---,0.06,VWS V14.01,2013-10-20 03:30:00,
2013-10-19 22:40:00,40.2,33.9,30.48,SW,225,0.0,0.0,78,0.00,,---,0.06,VWS V14.01,2013-10-20 03:40:00,
2013-10-19 22:50:00,40.2,34.5,30.48,SW,225,0.0,0.0,80,0.00,,---,0.06,VWS V14.01,2013-10-20 03:50:00,
2013-10-19 23:00:00,40.1,34.8,30.48,SW,225,0.0,0.0,81,0.00,,---,0.06,VWS V14.01,2013-10-20 04:00:00,
2013-10-19 23:10:00,39.9,34.5,30.48,SW,225,0.0,0.0,81,0.00,,---,0.06,VWS V14.01,2013-10-20 04:10:00,
2013-10-19 23:20:00,39.8,34.5,30.46,SW,225,0.0,0.0,81,0.00,,---,0.06,VWS V14.01,2013-10-20 04:20:00,
2013-10-19 23:30:00,39.5,34.5,30.45,SW,225,0.0,0.0,82,0.00,,---,0.06,VWS V14.01,2013-10-20 04:30:00,
2013-10-19 23:40:00,39.2,34.2,30.45,SW,225,0.0,0.0,82,0.00,,---,0.06,VWS V14.01,2013-10-20 04:40:00,
2013-10-19 23:50:00,38.9,33.9,30.46,SW,225,0.0,0.0,82,0.00,,---,0.06,VWS V14.01,2013-10-20 04:50:00,